Theta_e
303 303 303 304 304 303 304 304 305 305 305 305 305 305 305 306 306 306 305 305 306 305 305 305 305 305 305 307 307 307 308 307 307 306 306 308 307 307 305 303 303 306 309 309 310 312 312 310 310 310 310 308 309 311 310 313 315 314 316 316 315 315 314 315 315 313 315 316 315 314 314 315 316 317 315 322 345 357 359 365 361 354 355 351 349 346 343 342
303 304 304 305 304 304 304 304 304 304 305 304 304 305 305 305 306 306 306 306 306 305 305 306 305 305 305 306 307 307 307 306 307 306 308 311 312 313 312 307 303 304 307 308 310 313 312 311 310 310 310 310 310 311 312 314 315 315 318 316 314 314 314 315 314 314 315 315 315 315 314 316 314 316 316 318 337 349 357 363 362 360 354 348 347 344 343 342
303 304 305 305 305 305 304 304 304 304 304 304 304 304 304 304 305 305 306 306 306 306 306 306 305 305 304 304 305 306 307 306 307 309 310 312 311 313 316 314 306 303 304 305 309 312 312 310 309 310 311 311 312 313 313 315 315 316 317 316 314 314 313 314 315 315 315 315 315 314 314 315 314 316 317 315 328 345 358 362 363 362 354 350 346 343 343 341
303 303 304 304 305 304 305 305 304 304 304 304 304 304 304 304 305 305 306 306 306 306 306 305 305 305 304 303 303 305 306 306 308 310 311 311 308 310 314 315 308 304 304 304 309 312 311 310 308 308 310 312 313 313 314 315 316 316 316 317 316 314 313 314 314 315 315 314 314 313 313 314 315 315 316 317 319 333 345 352 360 359 353 349 345 343 342 341
303 303 304 304 304 304 304 304 304 304 304 304 304 304 304 304 304 304 305 305 305 306 306 305 305 305 304 303 303 305 307 306 307 309 309 309 307 308 311 313 310 306 304 305 310 311 309 307 307 308 309 312 313 313 315 315 315 316 315 316 317 314 313 315 314 315 314 314 315 313 313 314 316 315 316 317 315 324 329 337 354 354 350 348 344 344 342 341
302 303 304 304 304 304 303 303 303 303 303 304 304 304 304 304 304 304 304 304 304 305 306 305 305 305 305 303 303 305 307 305 307 308 307 307 307 307 309 313 311 305 305 307 310 309 308 307 307 309 310 311 312 313 315 314 314 316 315 315 318 315 313 316 314 314 314 315 315 313 314 315 316 317 316 318 317 321 318 330 353 351 347 347 345 345 343 342
302 303 303 303 304 303 303 303 303 303 303 303 304 304 304 304 304 304 304 304 303 303 305 305 305 305 305 303 302 305 307 307 306 306 306 306 307 307 308 314 313 308 307 309 309 308 308 307 307 309 310 311 311 312 313 313 313 315 315 314 316 316 315 316 315 316 315 315 315 313 315 315 318 317 316 319 315 323 332 341 352 350 348 347 345 345 344 343
302 303 303 303 303 303 303 303 303 303 303 303 303 303 304 305 305 304 303 304 303 302 303 305 305 305 305 303 302 305 306 306 303 303 306 304 306 307 307 310 313 312 310 309 308 308 308 307 307 309 309 310 311 311 312 313 313 313 314 313 314 315 315 316 316 317 315 316 315 315 315 315 318 314 316 317 313 336 354 351 350 349 348 347 346 346 344 342
303 303 303 303 303 303 303 303 303 302 302 303 302 302 303 304 305 304 304 304 303 303 302 304 305 305 305 303 303 304 304 303 301 302 304 304 306 306 306 306 308 309 310 310 309 307 308 308 308 308 309 310 310 310 311 313 313 313 313 313 313 313 314 315 315 316 316 316 315 316 316 317 317 313 317 315 319 345 357 350 351 350 349 347 346 345 342 341
303 303 303 303 303 303 303 303 303 303 302 302 302 302 302 303 304 305 304 304 303 303 303 304 304 305 304 302 302 302 302 300 302 304 304 305 304 304 305 304 305 307 307 309 308 307 308 308 307 308 308 309 310 310 311 312 313 313 313 313 313 313 314 314 314 315 315 315 315 316 316 318 315 313 319 317 329 349 354 350 351 349 348 346 343 342 340 341
303 303 303 303 303 303 303 303 303 303 303 303 303 302 301 301 303 304 304 303 303 303 302 303 304 305 304 303 302 302 300 300 302 303 302 302 300 300 301 301 303 306 306 307 307 308 308 306 306 307 308 309 310 310 310 311 312 311 312 312 312 312 312 312 313 313 314 314 317 316 315 318 314 315 318 316 336 352 352 350 351 348 347 343 341 341 339 340
303 303 303 303 303 303 303 303 303 303 303 303 303 303 301 301 302 303 304 303 303 303 302 302 304 305 304 304 303 302 301 302 301 300 299 298 298 298 298 299 302 305 306 306 307 308 308 307 306 307 309 309 309 310 310 310 309 310 311 311 312 312 311 312 312 312 313 314 317 315 314 315 313 318 316 320 342 354 350 351 349 346 345 341 341 340 338 338
303 303 303 303 303 303 303 303 303 302 302 302 302 301 300 301 302 302 303 304 303 303 302 302 303 304 304 303 303 302 302 301 300 299 299 298 299 299 298 299 301 303 305 306 307 308 308 308 307 307 308 307 308 309 309 309 309 310 311 311 312 311 312 312 311 311 312 313 316 314 312 315 316 319 316 327 346 355 351 350 345 343 344 341 340 338 337 337
302 302 303 303 303 303 303 303 302 301 301 301 300 299 300 301 302 301 302 303 303 303 302 302 303 304 304 303 302 302 301 301 301 300 300 300 300 300 299 300 301 302 304 305 306 307 308 308 306 306 307 307 308 308 308 308 309 310 310 311 312 312 314 315 313 312 312 313 316 314 312 314 318 321 315 326 346 355 351 349 343 342 343 341 340 338 339 338
301 302 302 302 303 303 303 302 301 302 302 301 299 299 300 301 301 301 301 302 303 302 302 302 303 303 302 302 301 301 301 301 302 301 300 301 301 301 301 302 303 304 305 306 306 307 308 307 306 306 307 308 307 307 308 309 310 310 311 312 311 312 315 317 314 314 313 313 315 314 313 315 318 321 317 326 347 354 350 347 343 343 343 341 340 338 339 338
301 301 302 302 302 302 303 302 302 302 302 301 299 298 300 300 300 300 300 301 302 302 303 302 302 302 302 301 300 300 301 302 302 301 302 302 302 302 302 303 305 305 306 307 307 308 308 307 307 307 307 308 308 308 309 310 311 310 311 315 313 311 312 314 314 314 313 312 313 313 316 319 317 320 326 335 350 353 349 348 343 343 343 341 339 338 339 338
301 301 302 302 302 302 303 302 302 302 302 301 299 298 298 299 298 298 299 300 300 301 302 302 302 303 302 302 301 301 301 302 302 302 302 302 303 303 303 305 305 306 307 307 308 307 307 307 308 309 307 308 309 308 309 310 312 312 311 314 314 312 311 311 313 315 312 312 313 312 316 318 320 336 344 343 350 350 349 348 344 343 342 340 339 339 338 338
302 302 301 301 301 302 302 302 302 302 301 301 299 298 298 297 297 298 298 300 300 301 301 301 302 301 301 300 301 302 300 301 301 301 301 302 303 304 305 305 306 307 307 308 308 307 307 307 309 311 309 309 308 308 310 310 311 313 313 313 313 311 311 311 312 314 313 312 313 312 315 314 323 349 349 342 347 349 349 347 344 344 342 340 339 339 339 338
302 302 301 301 301 301 302 302 301 301 301 300 299 298 298 298 299 300 300 301 301 301 300 300 301 299 298 298 299 299 300 301 301 301 302 304 304 304 305 306 306 308 308 308 309 307 308 308 309 310 309 308 308 307 309 310 310 312 314 315 313 311 311 312 312 315 313 313 314 313 316 314 326 354 349 339 343 347 349 347 345 345 342 339 338 339 339 338
302 302 301 301 301 301 302 302 301 301 301 300 299 299 300 300 301 302 302 301 301 301 300 300 301 300 299 299 298 299 301 301 301 302 303 303 304 305 306 306 307 308 308 309 308 307 308 309 309 309 309 308 308 308 308 310 310 310 312 312 312 311 312 312 313 316 313 314 315 315 317 315 328 356 349 338 343 346 349 349 346 345 342 339 338 340 340 339
302 302 302 302 301 301 301 301 302 301 300 300 299 299 300 299 300 301 301 301 300 300 300 300 300 300 300 300 300 300 301 301 301 302 302 302 304 306 307 307 309 309 308 308 308 308 308 310 309 308 310 310 309 309 309 309 309 309 310 311 311 310 311 312 313 314 312 313 315 316 318 313 325 350 346 338 343 346 348 349 347 344 341 340 339 339 340 339
302 302 302 302 302 301 301 301 301 301 299 299 299 299 299 299 300 300 300 301 300 300 300 299 300 300 300 300 300 300 300 301 302 301 302 302 304 306 307 308 309 309 308 307 309 309 308 309 309 309 312 312 309 310 309 309 309 309 309 310 312 312 311 311 312 313 312 313 317 316 313 314 330 345 342 339 342 342 344 346 345 343 342 341 339 338 339 339
302 302 302 302 302 301 301 301 301 300 299 299 299 299 300 300 300 301 301 302 301 300 300 300 299 299 300 300 300 300 301 301 302 302 303 303 304 306 307 308 308 308 307 307 309 309 309 309 309 310 312 311 309 309 309 309 309 310 309 309 312 313 311 312 313 313 311 313 318 317 315 325 342 346 341 339 342 340 339 342 342 342 342 341 339 338 339 339
302 302 302 302 302 301 301 301 300 300 299 299 299 300 301 301 301 301 301 301 301 301 300 300 299 299 300 300 300 300 301 302 302 302 302 303 305 306 307 308 308 307 307 307 307 308 309 309 309 310 311 312 310 308 309 309 309 310 309 309 310 311 311 313 314 315 317 317 317 317 314 323 342 350 347 343 343 341 340 341 342 340 340 340 339 338 337 338
301 301 302 301 301 301 301 300 300 300 299 299 300 301 301 301 301 301 301 301 301 300 300 300 300 300 300 299 300 301 301 302 302 302 302 303 304 306 307 307 307 308 307 306 306 307 308 308 309 309 310 311 310 308 308 309 310 310 309 309 309 310 311 311 312 318 321 318 315 314 311 316 337 348 349 345 343 343 340 341 341 339 339 339 340 339 337 337
301 301 301 301 301 301 301 301 300 300 300 300 301 301 301 301 301 300 301 302 301 300 301 301 299 300 300 300 300 301 302 303 302 302 302 303 303 305 307 307 307 307 307 306 306 307 307 307 308 309 309 310 311 310 307 308 310 310 310 310 309 310 311 310 311 316 318 316 314 313 311 319 336 344 346 346 344 343 341 340 340 339 339 340 340 339 338 337
301 301 300 301 301 301 301 301 300 300 301 301 301 301 301 302 301 300 300 302 302 302 303 301 299 299 301 301 301 302 304 304 302 302 303 303 303 304 306 307 307 307 306 306 307 307 307 308 308 309 309 309 310 310 308 308 309 310 312 311 309 310 310 310 310 312 316 317 315 315 313 316 332 343 345 345 344 343 342 341 341 340 339 339 339 338 337 337
301 300 300 301 301 301 301 301 301 300 300 301 301 301 301 302 301 301 301 301 303 304 304 303 301 300 301 301 301 302 304 303 302 303 302 303 303 304 306 307 306 306 306 306 307 308 307 308 307 308 309 309 310 311 309 307 308 310 311 312 311 309 310 311 311 312 315 314 312 317 317 314 330 344 343 344 345 344 344 342 341 342 339 338 338 337 337 336
301 300 300 301 301 301 301 301 301 301 300 300 300 301 302 301 301 301 301 302 303 305 304 304 303 302 302 302 302 302 302 302 303 303 302 303 303 304 307 307 305 306 306 306 308 308 307 308 308 307 308 309 310 311 309 307 308 309 310 312 311 310 311 312 312 311 313 313 313 316 316 314 330 346 345 346 348 345 344 342 340 340 339 337 337 337 336 336
300 299 299 301 301 302 302 301 301 300 300 300 301 301 301 301 301 302 301 301 302 303 304 304 304 304 304 303 303 303 303 302 303 302 302 303 304 304 305 306 306 306 305 305 307 308 307 309 310 308 308 309 310 311 309 308 309 310 310 310 309 312 313 312 317 315 311 317 316 313 315 315 324 342 348 347 348 346 343 342 339 338 339 337 336 336 337 336
299 298 299 301 302 302 302 301 300 300 300 301 301 301 301 300 301 302 302 302 301 303 305 304 303 304 305 305 305 304 303 302 302 302 303 304 304 304 306 308 308 308 307 306 306 307 306 308 310 309 309 310 310 310 309 309 309 309 311 309 310 316 315 310 315 315 312 318 319 314 316 315 317 334 347 344 344 345 343 342 340 338 338 338 336 336 336 336
298 298 300 301 302 303 302 301 300 300 301 301 302 302 301 301 301 302 303 303 304 305 306 304 304 305 305 306 306 305 303 303 302 302 303 305 306 305 306 309 308 307 307 306 306 307 307 307 309 310 311 310 309 310 310 309 308 309 311 311 311 315 314 311 313 318 318 318 319 318 316 314 316 329 342 342 342 344 343 341 339 338 338 337 336 336 336 335
298 299 300 302 303 303 303 302 300 301 301 301 302 302 301 302 303 302 302 304 305 305 305 305 305 305 305 306 307 306 304 303 302 302 302 304 307 306 306 308 308 308 309 308 307 307 307 308 308 309 311 310 309 310 309 310 308 307 310 311 312 313 312 313 315 318 320 318 318 320 315 315 317 319 329 338 340 341 341 341 339 337 337 337 336 336 336 336
299 300 301 302 303 304 304 303 301 300 300 301 303 301 301 303 303 303 304 305 305 305 305 306 306 305 305 306 306 306 305 303 302 302 302 303 307 308 307 308 307 309 312 310 307 308 309 310 310 309 310 310 309 309 310 311 309 307 310 311 313 317 317 318 320 317 317 318 318 315 314 317 316 317 328 334 339 342 342 343 341 338 337 337 336 335 336 337
300 301 301 303 304 304 304 303 301 301 300 302 303 301 301 303 303 304 305 305 305 306 305 305 305 305 306 306 306 306 305 304 303 302 303 303 307 309 308 308 307 307 310 310 308 308 308 310 311 309 310 310 309 310 310 312 310 308 311 311 312 318 321 319 323 326 322 317 316 315 319 324 320 325 336 338 343 347 345 344 341 339 338 337 337 336 336 337
300 301 302 304 304 305 304 302 301 302 301 301 302 301 301 302 303 304 305 305 305 306 305 305 306 306 307 307 307 307 306 305 304 302 303 303 304 307 307 307 308 306 309 312 312 310 309 312 312 309 310 309 308 311 309 311 313 310 310 311 311 314 317 314 317 325 322 315 320 320 317 321 320 325 339 343 346 346 343 343 341 339 338 337 337 337 336 336
300 300 302 304 305 305 304 302 302 302 302 302 302 302 300 300 302 303 305 305 305 305 306 306 307 307 307 308 308 306 305 305 304 302 304 305 306 306 305 307 308 306 309 310 311 314 314 315 315 310 309 310 309 310 309 310 314 312 309 311 312 311 317 322 321 322 321 317 323 322 313 315 318 324 340 346 345 344 341 342 340 338 338 338 338 337 336 336
300 300 303 305 305 306 304 302 302 302 302 302 303 303 302 302 304 305 306 306 304 305 307 308 307 306 307 308 308 306 304 305 304 302 303 305 308 308 305 306 308 307 308 306 308 314 313 313 314 311 310 310 308 309 310 311 311 311 312 311 313 315 318 322 322 321 321 317 318 318 316 319 320 328 347 350 344 343 341 340 340 339 339 339 337 336 336 336
300 302 305 306 305 306 304 302 302 303 303 304 304 304 303 303 304 305 307 306 305 306 307 307 308 307 306 308 309 309 306 304 304 303 304 306 308 309 306 306 308 307 307 306 308 313 315 315 314 310 310 310 308 310 310 310 310 310 312 309 312 320 319 317 319 321 321 320 323 320 316 320 324 335 354 354 341 340 341 340 341 339 338 338 336 336 336 335
300 303 306 306 304 305 304 302 303 303 304 304 304 304 303 303 303 304 307 307 305 306 307 307 307 307 307 307 309 310 309 308 306 304 306 306 307 309 306 306 308 307 307 307 307 310 312 315 315 310 310 310 309 310 310 310 310 309 311 311 310 312 314 316 318 318 318 324 329 324 318 327 337 341 351 353 341 338 341 340 339 338 337 337 335 335 335 335
301 304 306 306 304 305 304 303 304 303 304 304 304 304 304 304 304 305 307 306 305 305 306 306 307 307 307 307 308 309 311 313 310 305 306 306 306 309 307 307 307 306 308 308 308 310 311 317 322 315 310 310 310 310 310 309 310 310 311 314 313 311 314 317 315 316 320 324 327 325 324 333 339 335 339 344 339 337 340 338 339 338 336 336 335 335 335 335
302 305 306 305 304 304 303 304 304 303 304 304 304 304 304 305 306 306 306 307 306 305 305 306 307 307 307 307 308 309 311 316 312 307 308 307 307 309 308 308 308 306 309 308 307 312 313 315 321 317 310 311 311 311 312 311 310 311 311 313 314 315 317 320 321 322 319 317 321 322 322 333 341 335 335 339 337 338 339 338 339 338 336 336 335 334 335 335
303 304 305 305 304 304 304 304 304 304 305 305 304 305 305 306 306 305 305 307 307 306 306 306 306 307 307 307 308 309 311 315 313 310 309 308 307 308 307 307 308 307 308 309 308 312 313 313 314 314 312 311 311 310 311 311 310 310 312 311 312 315 321 331 339 332 318 315 320 315 316 335 349 341 336 337 336 336 337 338 339 337 336 336 334 335 335 335
303 303 304 305 305 304 304 305 305 305 305 305 305 305 304 304 305 305 305 306 307 307 307 307 307 307 307 307 308 310 311 313 313 312 312 311 311 311 308 306 307 308 308 310 312 311 315 318 314 313 314 312 312 311 310 310 311 315 319 313 310 316 320 326 331 324 315 319 322 317 320 333 341 338 335 336 337 338 339 339 340 337 335 335 334 334 335 335
303 304 304 305 305 304 304 304 305 305 305 304 304 304 304 305 305 305 305 306 307 307 308 310 309 308 308 308 309 310 311 312 313 313 313 312 313 312 308 305 306 308 307 312 315 312 317 321 319 318 318 315 314 314 312 312 312 316 320 313 310 315 314 318 322 316 316 321 319 321 330 334 341 343 338 336 340 342 342 341 340 337 335 335 334 334 334 336
304 305 304 305 305 304 303 302 302 303 304 304 305 305 305 305 305 304 305 306 306 306 307 309 308 309 309 309 310 311 311 311 312 313 313 313 315 312 307 306 306 307 309 314 316 316 318 320 322 324 320 317 319 316 313 315 313 313 315 311 312 315 315 321 323 319 324 325 319 329 339 335 341 347 341 339 342 341 342 343 340 338 336 335 334 333 334 335
304 305 304 304 305 305 303 302 302 303 303 304 305 305 305 305 305 305 305 307 307 307 308 309 309 311 311 311 312 312 312 312 311 312 313 313 315 314 309 306 305 308 313 314 314 315 314 316 324 325 317 317 322 317 312 314 314 314 315 313 314 319 319 319 321 324 328 321 321 338 342 333 339 348 342 341 342 340 341 341 339 338 336 335 334 334 334 336
303 303 303 303 304 305 305 304 303 303 303 303 304 304 305 305 305 307 307 307 308 309 309 310 310 311 311 311 311 312 313 315 314 314 316 315 316 318 314 306 305 311 314 312 315 318 316 318 323 321 316 318 320 316 313 315 315 316 320 318 316 320 320 315 323 336 327 315 325 340 338 337 347 350 341 337 339 339 339 339 339 338 337 336 335 335 335 337
301 302 302 302 303 303 303 303 304 304 304 304 304 304 305 306 307 307 306 307 309 309 308 310 311 310 309 309 310 312 317 318 316 316 318 317 317 319 316 309 309 313 312 313 319 321 320 325 326 321 321 323 322 318 314 314 314 314 319 324 322 324 324 320 331 339 325 319 337 342 336 341 345 341 338 337 339 339 338 339 341 339 338 337 336 336 337 338
299 300 300 301 301 302 303 304 304 304 305 306 306 306 307 307 308 309 308 308 311 311 308 309 312 313 312 312 312 315 319 318 316 318 318 318 319 320 320 319 315 312 312 317 320 319 319 325 330 331 328 324 325 324 316 314 317 314 318 327 327 324 321 318 326 330 320 323 339 337 333 340 339 336 340 342 342 343 341 340 341 339 337 338 337 337 338 338
298 299 299 300 301 302 304 305 305 306 307 307 307 307 307 308 309 311 311 309 309 312 311 312 315 315 315 317 317 317 318 317 317 318 317 318 320 319 321 323 317 313 317 322 321 317 318 322 327 334 331 320 323 327 319 319 321 314 315 323 327 325 321 317 323 328 324 328 336 332 331 339 342 339 342 343 341 342 341 340 339 338 338 338 338 338 338 337
298 298 299 300 302 303 304 304 305 307 308 307 306 306 307 309 310 312 314 311 309 312 313 314 316 316 318 321 319 317 318 317 317 317 316 316 317 317 320 320 317 317 321 325 321 318 321 320 319 328 329 318 321 327 322 319 317 315 321 328 326 327 323 318 319 323 326 333 336 332 331 338 343 341 343 344 342 341 341 340 339 338 338 338 339 338 337 335
Wind_Speed
16 16 16 16 16 16 16 16 16 16 16 16 16 16 17 16 16 17 18 18 18 19 19 20 20 20 20 20 21 22 24 26 27 26 19 19 22 20 21 23 19 12 9 10 10 7 6 5 5 5 4 3 3 2 3 3 2 2 3 4 4 5 6 6 8 6 5 4 5 4 2 4 5 7 4 3 5 3 4 5 3 5 6 8 15 26 32 31
16 15 15 15 16 16 16 17 17 16 16 17 17 17 17 17 17 17 18 19 18 19 19 19 19 20 20 20 21 22 24 25 23 22 18 15 16 16 17 20 21 16 13 13 10 5 2 2 1 4 5 2 2 3 4 3 3 4 3 4 6 6 6 6 7 6 5 5 4 2 2 1 4 5 4 2 2 2 4 3 5 7 8 12 18 25 28 29
15 15 16 16 16 16 16 16 16 17 17 17 17 18 18 18 18 17 18 19 19 19 19 19 19 21 21 20 20 21 22 21 15 11 8 13 14 15 15 14 19 19 19 17 10 7 6 3 3 1 4 3 3 3 5 4 4 4 3 4 7 6 5 4 6 7 6 4 4 5 3 5 6 4 3 1 1 3 4 3 3 5 8 12 14 19 24 25
15 15 16 16 16 16 16 16 15 16 16 17 18 18 18 18 18 18 18 18 19 19 18 18 19 20 22 21 18 20 18 12 6 3 7 14 14 17 15 10 17 19 20 17 11 9 7 4 3 1 3 3 3 2 5 5 4 3 5 6 5 5 5 7 8 7 6 4 5 5 3 6 8 3 3 2 1 3 5 6 6 10 14 15 13 16 20 21
16 15 16 16 17 16 16 16 16 15 15 16 17 17 17 17 17 18 18 18 19 19 19 18 18 18 21 21 18 18 11 4 2 4 10 15 17 20 18 6 16 20 19 14 9 7 6 2 2 1 1 3 3 3 4 6 4 2 6 7 4 5 5 7 8 7 7 5 7 5 2 4 6 4 4 5 5 5 6 7 7 14 18 18 16 16 17 16
17 16 16 16 16 17 17 17 17 16 15 15 16 17 17 17 17 17 17 18 19 18 18 17 17 17 19 20 18 12 3 2 3 3 9 16 19 21 22 9 11 17 15 14 8 5 4 3 3 1 1 2 5 5 5 5 5 3 4 4 5 6 5 5 5 7 7 6 9 5 3 3 5 6 4 3 7 6 7 5 9 16 19 21 19 17 15 12
17 17 16 17 17 18 18 18 18 18 17 16 16 16 17 17 16 17 18 18 18 18 18 16 16 16 18 20 15 6 3 7 13 8 12 19 20 20 20 14 5 10 11 11 8 4 3 4 4 4 2 2 5 5 6 4 4 6 4 2 5 6 6 5 4 6 7 9 10 3 0 3 4 7 3 4 7 5 7 1 12 14 16 20 17 14 13 13
17 17 17 18 18 18 19 19 19 19 18 17 17 17 17 17 16 17 17 17 18 18 17 16 15 15 16 16 10 5 4 15 26 17 17 21 21 20 18 15 9 2 6 8 6 5 4 5 5 4 3 5 4 3 4 4 4 6 6 3 4 5 6 6 6 7 6 7 7 3 3 6 8 5 4 10 9 1 1 8 13 13 15 14 13 15 15 14
17 17 18 18 18 18 18 19 19 19 19 19 19 19 18 18 17 17 16 16 17 16 16 16 15 14 13 10 6 5 8 19 25 18 18 21 20 19 17 14 13 10 4 7 6 6 4 4 6 5 4 5 4 3 3 4 5 6 6 5 5 6 5 5 6 8 7 5 4 6 8 8 8 2 4 12 5 5 7 11 12 14 15 13 13 15 15 16
18 18 18 18 18 18 18 18 19 19 20 20 21 20 20 19 17 17 17 17 16 16 15 14 14 13 10 6 2 5 11 15 14 12 14 17 20 20 19 16 16 14 8 9 7 8 7 6 6 4 3 3 3 4 4 5 5 5 6 7 8 8 6 5 7 7 6 5 5 6 8 9 5 2 4 8 3 9 11 12 12 14 14 13 14 13 14 16
18 18 18 18 17 18 18 18 19 19 21 22 21 21 21 20 18 17 17 17 16 16 15 13 14 12 8 2 0 6 8 6 8 11 17 21 26 26 23 21 17 14 10 9 8 9 11 10 4 1 2 3 2 3 4 4 4 4 5 5 7 8 7 7 8 7 3 4 6 8 8 9 1 3 7 5 5 10 15 15 14 14 12 14 15 12 10 10
18 18 18 18 18 17 18 18 19 20 22 22 22 22 22 20 19 17 17 17 16 15 14 14 13 12 10 4 8 16 9 7 17 24 27 28 29 27 23 23 18 14 11 7 10 12 12 13 7 3 3 2 2 2 3 3 2 4 5 4 6 6 7 8 8 6 5 4 5 7 5 8 2 5 9 3 7 11 16 16 15 14 12 13 13 10 7 8
19 19 19 19 18 18 18 19 19 21 22 23 24 24 22 20 19 18 17 16 15 14 14 14 13 12 8 4 16 28 23 24 31 34 31 26 25 26 22 20 19 18 15 11 14 15 12 13 10 6 4 0 2 3 2 4 2 3 3 3 4 4 6 7 6 5 6 5 6 7 3 7 5 9 8 4 11 14 14 13 13 12 11 11 10 9 8 10
20 19 19 19 19 19 19 19 20 22 23 24 25 23 21 20 20 19 17 16 15 14 13 12 12 11 6 9 22 29 25 26 29 30 27 22 22 23 20 17 16 16 15 15 18 17 15 13 10 7 4 3 3 5 6 4 2 2 2 3 3 4 5 6 5 6 6 4 8 8 5 7 6 11 7 5 11 15 14 11 11 11 11 10 9 9 10 11
20 20 20 20 20 20 19 20 21 21 22 23 24 23 22 21 20 19 17 16 15 14 12 11 11 8 4 11 20 19 13 12 20 23 20 20 20 16 14 11 11 13 13 14 16 16 15 11 8 5 3 4 4 4 5 3 2 1 3 3 3 4 5 7 6 9 8 4 8 10 6 5 6 10 4 5 10 14 14 12 11 12 11 10 8 9 10 8
21 20 20 20 21 20 19 21 21 21 21 22 23 23 23 23 22 21 19 17 15 13 10 8 8 6 4 7 9 8 6 8 14 17 14 15 15 14 14 12 12 14 12 12 14 14 13 7 4 4 3 3 5 3 1 2 3 2 3 3 3 5 3 5 5 7 11 6 5 9 6 2 5 9 2 6 11 14 13 11 12 13 12 11 9 8 8 6
21 21 21 21 21 19 19 21 22 21 21 23 25 24 24 25 24 22 20 17 13 11 9 7 5 4 6 10 9 7 6 6 10 14 16 18 16 16 14 7 7 10 10 10 10 9 7 5 3 4 4 3 4 5 3 5 5 3 1 3 2 4 5 4 5 5 9 8 6 7 6 4 6 6 1 6 12 14 14 12 12 12 10 9 8 8 7 7
21 22 21 21 21 20 19 21 22 21 21 23 25 24 24 22 19 18 15 10 5 3 5 7 5 2 6 10 7 5 5 9 17 20 21 19 15 15 11 5 3 5 6 6 5 4 3 2 3 3 4 6 5 7 7 6 5 3 3 4 3 3 5 7 5 4 6 7 6 6 6 7 7 6 3 5 12 15 15 13 12 13 11 9 9 9 8 8
22 22 22 22 21 20 19 20 22 21 20 22 24 23 18 11 7 7 3 2 2 1 1 4 6 2 5 8 3 5 11 18 22 18 13 9 7 11 9 6 2 1 1 1 3 5 4 2 4 5 7 9 8 8 7 3 6 7 5 4 4 4 5 6 5 5 5 6 5 7 6 6 7 6 1 4 8 13 15 13 11 11 10 9 8 9 9 10
22 22 22 21 21 20 20 20 21 21 20 21 23 18 10 6 4 2 1 3 4 5 4 3 7 6 10 13 7 8 17 18 12 9 11 10 4 6 6 4 1 2 3 3 4 4 5 4 7 9 8 9 9 8 6 4 4 7 5 3 4 4 4 4 3 7 3 5 4 7 7 7 7 6 3 5 6 10 13 11 10 10 10 9 9 10 12 11
22 22 21 20 21 19 20 20 20 23 20 17 16 8 2 3 3 3 3 5 9 11 11 10 12 12 14 20 15 10 12 11 9 13 19 17 6 4 4 4 4 4 4 3 2 1 5 8 9 7 6 8 8 8 8 7 6 4 4 3 4 4 4 4 4 6 1 3 4 4 6 8 7 6 4 6 8 10 14 13 11 12 11 9 9 10 11 9
23 22 21 21 19 19 21 20 21 23 16 11 8 1 3 4 4 6 5 6 8 13 15 15 15 14 18 28 24 11 6 7 12 14 12 7 6 6 4 6 5 4 4 3 2 2 7 8 7 6 5 7 7 8 9 9 8 5 3 3 3 4 3 4 5 4 1 3 4 4 6 7 4 3 5 6 6 7 12 16 16 16 14 11 10 11 11 9
23 22 22 21 19 21 21 20 24 20 9 9 8 3 5 7 8 9 5 6 8 9 11 13 13 11 16 23 19 9 7 6 8 12 7 3 5 7 5 6 7 5 5 7 6 6 6 5 7 7 6 7 6 8 10 8 6 5 4 4 3 3 2 2 4 4 1 3 2 4 3 5 3 3 2 5 3 2 5 9 11 13 14 13 11 12 13 13
24 23 22 21 21 21 21 24 23 11 7 15 11 6 7 8 10 9 3 4 7 5 9 13 11 9 15 18 9 10 9 7 7 10 8 4 4 5 6 6 7 6 7 9 8 6 4 3 8 8 6 8 6 7 10 7 5 4 4 5 4 3 3 3 3 4 3 2 2 4 2 5 1 3 3 4 0 3 2 2 6 8 9 8 8 10 10 12
24 23 23 23 22 21 23 24 13 7 16 17 7 5 8 6 7 5 2 2 5 4 5 8 6 7 14 13 7 8 6 6 9 10 6 4 4 3 5 5 5 8 9 8 6 5 5 4 9 11 8 8 7 6 9 8 5 5 4 6 6 5 5 3 2 3 5 4 2 4 1 6 3 5 6 3 3 5 3 4 8 7 7 8 9 10 10 10
25 24 24 24 22 22 21 13 6 13 19 9 2 7 8 6 4 1 2 2 4 3 1 2 2 5 7 6 8 6 3 6 11 14 11 9 6 3 5 5 4 8 8 6 3 3 5 6 8 12 10 9 8 6 7 9 6 4 5 8 8 6 5 3 0 2 3 2 4 3 5 5 4 4 6 4 4 5 4 6 9 7 8 9 9 10 11 10
26 27 27 24 22 21 14 7 11 15 10 3 4 8 6 6 3 3 1 2 3 1 1 0 1 2 4 6 10 6 2 4 6 12 15 13 8 3 5 5 4 5 6 5 4 3 7 9 8 12 11 9 9 6 6 9 7 3 5 9 9 8 6 4 3 1 2 2 4 1 4 2 4 5 4 4 4 5 6 9 10 8 8 8 8 9 11 11
27 30 29 25 22 19 14 14 14 10 6 5 6 7 6 5 1 2 1 3 2 1 0 2 1 3 3 7 11 7 3 2 1 7 13 15 10 2 2 4 4 6 7 7 6 3 8 12 10 11 12 8 7 5 7 10 6 4 5 9 8 8 7 5 4 3 2 1 5 4 2 2 5 4 2 5 5 6 9 12 13 12 10 10 10 10 11 11
30 33 31 26 22 19 17 16 13 11 8 5 6 8 7 4 1 1 1 2 1 2 1 2 3 5 2 6 9 8 5 2 1 2 9 13 11 5 1 3 4 6 8 8 5 2 6 10 9 9 9 7 6 5 7 10 5 4 6 6 4 4 5 5 5 4 1 1 6 7 3 3 4 3 4 4 5 9 10 10 12 13 12 11 11 10 11 10
33 36 34 27 22 18 12 13 18 17 9 5 8 8 5 2 1 2 1 2 1 0 1 2 3 4 1 4 5 7 6 5 4 1 4 6 7 6 2 1 3 3 6 7 6 6 4 7 7 6 6 6 7 5 6 9 7 5 6 3 1 1 1 3 3 3 2 2 8 7 6 5 4 4 5 6 10 13 11 8 10 13 13 13 12 11 11 10
36 38 35 27 22 15 7 8 13 11 7 6 8 5 1 1 1 1 2 1 1 1 0 1 3 3 1 1 3 5 5 6 5 1 3 3 6 6 2 2 2 3 3 5 7 9 7 5 7 5 6 7 7 6 5 7 7 6 5 4 1 4 2 1 2 2 3 5 7 6 7 7 4 5 7 12 14 10 11 13 15 17 17 14 12 11 10 9
39 38 34 26 18 12 10 7 2 7 5 4 3 1 2 3 1 3 2 2 2 2 0 1 3 2 1 2 3 4 3 3 3 2 3 3 6 6 5 4 3 4 6 7 8 8 8 5 4 5 7 9 9 6 5 5 6 6 5 6 4 2 1 3 2 1 4 5 6 4 5 4 6 7 9 16 16 10 12 16 18 19 19 16 13 11 9 8
40 38 31 20 11 12 13 9 6 7 2 2 2 2 4 1 2 3 2 2 2 1 1 2 3 2 3 4 3 4 4 1 2 3 3 2 5 5 5 4 3 2 4 7 7 7 4 4 4 7 7 10 11 9 7 6 6 7 6 6 6 4 3 4 3 1 2 5 7 4 3 2 4 5 8 14 18 16 13 11 13 15 15 14 12 11 9 9
39 35 25 15 9 12 12 8 9 9 4 1 2 4 3 1 3 2 2 2 2 2 2 2 4 5 5 5 3 3 3 2 3 5 3 3 4 5 5 6 6 1 3 6 5 6 6 4 7 9 6 10 13 10 8 6 6 6 4 6 5 4 5 4 3 3 3 4 5 2 3 4 4 3 6 9 10 8 7 5 7 8 8 9 9 9 9 9
36 29 20 13 10 10 9 7 10 10 6 1 4 3 1 3 3 2 2 2 2 4 4 5 7 6 4 5 4 3 2 3 5 5 3 4 4 4 5 5 7 3 3 6 4 4 7 5 6 9 6 11 13 8 7 7 5 4 4 6 5 5 5 1 2 6 5 3 3 2 3 4 4 3 6 2 3 6 8 8 10 10 9 9 10 10 10 9
33 26 16 8 6 5 7 13 14 11 7 3 3 2 3 3 3 2 1 2 2 4 6 7 5 3 2 2 2 3 2 2 5 5 2 3 4 4 4 3 5 5 4 5 3 4 6 4 5 10 7 9 13 10 8 7 5 4 4 5 5 5 5 1 2 1 3 4 4 1 2 4 2 3 6 5 5 7 9 10 11 11 12 11 10 10 10 10
28 22 11 6 6 4 6 15 17 12 6 2 2 3 3 3 4 3 2 2 1 2 5 5 1 1 1 1 1 3 3 1 5 5 2 2 3 3 4 3 4 8 6 4 2 3 6 3 5 12 11 8 11 12 8 6 6 5 6 7 3 3 2 1 2 1 3 4 4 1 3 3 1 2 5 5 4 6 8 10 11 11 12 12 10 11 11 11
23 15 7 6 7 3 8 17 18 11 3 2 4 5 4 3 4 3 3 2 1 3 4 2 1 0 1 1 2 3 5 3 4 5 3 2 2 4 6 3 4 8 7 5 2 2 4 2 5 10 12 6 7 11 7 6 6 6 6 7 5 4 2 1 2 2 2 3 3 1 1 2 3 4 3 2 7 8 8 9 10 12 13 13 11 12 12 11
17 7 3 5 6 1 11 18 15 6 2 3 4 4 3 4 6 6 4 2 2 4 3 2 2 1 1 1 2 1 4 4 5 4 3 2 2 4 7 5 4 7 7 7 4 3 0 3 1 7 11 5 4 8 8 7 6 4 4 6 4 4 4 3 2 3 3 3 3 1 2 3 5 6 7 10 11 10 11 11 12 14 15 13 12 12 12 11
10 3 1 4 5 2 12 15 9 3 3 3 3 3 3 4 6 6 5 5 3 4 3 3 2 1 1 1 1 1 1 2 3 4 3 3 3 4 5 7 4 4 6 8 6 1 1 2 2 5 8 6 4 7 9 10 8 5 5 5 4 3 3 2 1 2 3 3 3 3 2 5 6 4 9 12 11 12 14 14 14 14 14 13 12 12 12 11
5 2 1 3 2 7 12 7 2 2 3 3 4 4 5 6 5 6 6 8 6 5 5 4 4 3 2 2 1 2 0 1 1 3 2 3 4 3 3 8 6 2 5 6 5 2 1 1 2 5 6 6 6 6 8 10 9 7 6 5 5 5 4 3 2 1 2 3 4 4 3 6 6 3 6 9 11 13 15 14 12 12 14 13 12 12 12 12
3 2 3 4 2 9 8 2 3 2 3 4 4 5 7 7 5 5 5 6 6 6 6 5 5 4 2 2 2 2 1 1 1 3 2 4 5 4 4 7 8 5 4 4 4 3 2 1 1 3 5 6 6 5 8 10 9 7 5 5 5 5 5 5 5 3 1 2 2 4 3 6 6 3 4 6 8 11 12 11 9 9 12 12 11 12 12 12
2 4 6 6 5 9 3 2 3 2 4 5 5 7 8 7 5 5 5 4 4 4 4 4 4 4 3 3 3 2 1 1 2 3 3 3 5 7 7 7 8 6 3 2 3 3 2 1 1 1 1 1 1 2 6 9 8 5 4 5 5 5 5 5 5 4 4 3 2 4 2 6 6 4 4 4 5 5 6 6 6 7 8 9 11 12 12 11
3 4 4 3 7 8 1 2 2 3 5 6 8 9 8 6 6 6 5 3 3 3 2 3 3 3 4 3 2 2 1 0 2 3 3 2 3 8 9 8 8 8 6 4 3 4 4 2 1 2 4 4 3 3 4 6 7 5 3 4 6 7 6 4 2 2 3 4 4 5 3 6 5 5 3 4 6 4 3 4 6 8 8 9 10 10 11 11
3 2 2 2 6 5 1 2 2 4 6 8 9 9 8 5 5 6 7 5 4 3 3 2 2 2 2 2 2 3 4 3 2 2 3 2 3 6 8 10 11 10 9 8 3 3 4 3 3 4 5 6 6 5 5 6 5 4 4 6 7 9 9 5 2 3 2 4 4 5 4 6 6 6 3 5 8 6 6 6 7 7 8 9 9 10 11 11
2 1 2 3 3 3 2 3 3 3 4 6 7 6 5 3 3 4 6 5 4 5 4 3 2 1 1 1 1 2 4 5 5 3 2 2 3 4 7 13 13 11 13 16 9 2 2 2 3 5 6 7 6 5 3 5 6 4 6 7 5 7 9 6 4 4 4 3 2 5 5 4 6 6 2 5 8 8 7 9 9 9 8 8 8 9 10 9
2 1 2 3 2 2 2 2 2 3 4 4 4 4 4 4 4 3 2 2 2 2 2 3 2 1 2 2 1 2 3 5 7 4 4 3 4 5 5 11 13 14 17 17 10 1 2 4 4 6 8 8 7 6 5 8 8 6 8 8 4 6 8 7 5 6 5 5 3 7 5 5 6 7 6 8 9 9 9 9 10 9 9 8 8 8 9 8
2 1 1 3 3 2 3 3 4 5 7 5 2 3 5 5 4 2 2 2 3 2 1 1 2 3 3 2 1 2 3 2 2 1 3 3 4 5 1 8 10 12 14 9 4 2 1 5 5 4 6 7 6 7 8 9 8 8 9 8 5 7 9 8 7 7 7 6 6 6 6 6 8 7 8 9 8 9 9 8 7 8 9 9 10 10 9 9
3 2 2 3 3 5 7 9 9 8 7 4 2 3 4 6 5 2 2 2 4 2 2 1 3 5 6 5 4 2 3 1 2 1 2 3 5 4 1 5 5 5 7 5 3 3 2 5 4 2 3 2 3 6 9 9 8 8 8 8 8 9 9 8 6 6 7 6 5 5 6 6 8 6 6 5 2 4 5 7 8 9 11 11 11 12 10 10
3 2 4 3 4 7 7 7 7 7 5 2 2 3 3 4 7 5 2 3 3 1 3 2 5 5 5 6 6 4 2 4 3 5 4 2 5 3 2 3 2 4 5 3 3 3 3 4 3 2 3 3 4 4 8 9 10 8 6 5 8 8 6 3 2 3 4 2 2 6 4 5 6 3 1 1 4 6 7 7 8 9 10 11 11 11 11 11
6 7 7 5 5 6 5 4 5 5 4 1 2 4 3 4 8 10 4 5 5 3 4 4 5 4 3 3 3 4 4 6 8 9 7 4 3 2 1 1 2 3 3 1 0 1 2 2 2 3 4 2 4 5 7 8 9 8 5 5 8 8 5 3 3 4 5 5 6 7 3 5 5 1 4 3 5 8 8 8 8 7 9 11 13 13 13 13
9 7 6 4 4 4 4 6 6 4 3 2 3 6 7 7 10 10 4 3 6 7 6 6 4 3 2 2 2 4 5 5 9 9 7 6 6 3 3 3 1 2 4 2 1 0 1 1 2 2 4 2 4 4 8 8 8 3 4 7 7 5 4 3 2 3 5 7 8 6 6 5 3 4 4 3 5 7 7 8 8 8 9 10 11 12 13 14
Wind_Direction
342 341 339 337 335 331 326 324 326 324 323 321 318 317 315 318 318 317 320 322 323 323 326 328 331 329 325 324 322 322 322 319 316 311 295 284 292 289 277 269 268 258 232 256 278 286 297 288 251 203 164 159 182 194 195 190 163 144 152 191 200 189 201 186 185 194 175 214 242 249 213 199 275 310 296 20 43 111 93 28 36 33 35 90 111 126 135 141
340 339 337 337 336 333 329 327 326 324 323 320 320 317 313 314 315 317 316 315 319 320 323 327 330 331 329 328 324 324 323 317 310 293 288 317 336 329 302 270 256 249 244 259 271 263 238 328 305 164 141 157 212 190 195 187 171 181 141 187 216 196 203 188 181 195 176 208 241 274 324 325 287 312 322 343 356 141 116 31 38 56 69 95 111 126 135 143
336 337 336 335 333 331 330 329 328 326 323 321 320 317 316 314 312 315 313 313 316 316 320 324 328 330 331 328 323 326 323 316 304 274 307 8 17 1 335 277 244 236 242 250 261 261 218 220 333 122 152 203 227 185 190 199 189 188 140 199 229 200 211 223 201 213 212 224 272 284 322 339 297 297 318 307 145 204 183 164 98 110 122 116 123 133 140 147
337 336 334 333 331 329 327 324 322 323 324 323 322 319 318 317 313 312 311 312 313 314 316 320 327 329 332 330 323 326 324 312 279 198 24 15 15 8 349 278 229 222 234 241 254 263 235 222 314 351 165 209 255 191 187 212 193 182 187 209 220 178 208 238 223 232 243 251 264 273 349 329 294 292 279 258 166 261 244 220 180 153 142 134 141 145 149 154
338 336 334 332 330 327 324 321 315 316 320 320 321 319 318 317 315 312 311 311 310 313 314 317 323 327 333 330 326 330 329 312 237 113 31 7 4 3 358 308 210 211 222 229 243 238 219 190 64 21 172 205 234 195 215 225 184 192 215 208 202 168 205 233 217 231 240 253 263 270 319 288 298 321 279 258 235 235 235 231 171 150 149 147 151 155 157 154
337 335 334 330 329 327 326 325 321 320 317 314 316 317 317 315 314 312 311 311 308 309 313 316 319 326 333 329 330 329 288 281 298 79 8 349 347 352 4 7 192 196 209 217 225 204 188 153 119 164 184 218 222 212 242 234 187 227 242 196 205 187 205 233 202 219 218 233 255 247 241 271 340 314 277 231 229 232 258 242 148 150 153 150 153 155 151 132
337 334 333 331 330 330 330 329 327 326 322 317 314 313 313 312 311 312 310 310 308 306 310 314 316 323 330 333 334 309 210 274 267 264 321 327 332 340 4 23 124 174 195 208 209 177 149 148 158 172 174 246 221 214 243 247 205 223 250 223 222 211 216 242 230 229 208 220 243 210 169 288 299 292 303 275 263 269 296 30 127 144 144 146 147 135 121 107
337 334 334 332 331 330 329 329 328 327 325 323 317 312 310 310 309 308 309 311 310 307 305 309 316 320 329 340 338 297 241 254 255 265 301 308 317 329 353 21 50 108 216 226 213 169 139 156 177 173 187 234 213 210 226 231 237 221 235 254 237 229 226 239 249 255 234 227 246 250 273 252 243 275 319 278 282 357 68 97 119 134 130 131 124 114 111 112
337 335 334 332 331 329 328 327 327 325 324 324 321 315 308 307 307 305 307 309 311 311 304 308 312 313 329 340 332 302 259 254 264 278 291 295 305 319 336 356 10 8 320 274 248 185 171 177 195 192 188 227 230 252 206 193 236 215 214 238 241 248 250 244 248 255 253 240 235 254 271 262 247 266 292 272 268 116 113 102 113 122 118 116 118 123 126 131
338 336 334 332 331 329 327 326 325 324 322 321 320 317 309 305 304 303 303 305 312 312 306 307 306 311 330 345 348 285 267 267 272 272 278 294 306 313 320 328 341 351 344 314 280 201 196 192 193 197 197 238 235 243 213 189 232 216 199 226 233 244 257 250 250 253 262 264 211 218 257 264 256 143 260 277 160 127 104 98 113 117 119 125 130 136 139 143
338 337 334 333 331 330 329 326 324 323 321 321 319 317 312 304 299 300 300 302 306 309 308 303 304 310 308 322 80 256 267 277 262 275 296 302 306 308 305 306 319 326 318 315 291 238 220 215 199 148 202 230 242 268 252 215 238 241 219 243 243 246 258 250 255 254 249 272 213 192 240 263 280 146 235 252 131 124 110 117 127 124 129 136 140 144 144 141
339 337 336 334 332 330 328 326 325 324 321 321 317 314 313 306 298 297 297 298 300 305 307 300 304 308 295 276 236 240 247 289 289 297 300 298 298 297 296 297 300 300 292 290 286 272 241 226 216 213 229 212 229 259 269 257 270 255 228 246 259 259 263 245 250 242 201 240 199 166 243 265 234 214 234 194 124 120 118 130 132 131 140 143 145 139 132 135
338 337 336 333 332 330 328 325 325 325 321 319 316 312 310 304 299 296 294 296 297 299 303 300 301 301 294 264 249 252 264 285 294 297 291 290 292 287 285 286 286 285 275 258 266 275 263 238 214 217 248 152 222 244 310 325 319 269 217 196 243 265 266 244 235 219 205 217 171 151 243 260 250 247 245 123 125 128 121 129 129 136 145 144 144 131 138 158
337 336 334 333 332 329 327 326 326 326 322 320 318 313 306 301 299 296 293 292 293 295 298 297 297 299 287 259 266 270 278 285 287 285 282 286 290 289 284 276 278 281 273 261 261 269 270 248 211 217 254 202 247 310 342 343 322 270 202 179 195 212 260 264 224 195 212 219 160 159 238 253 264 264 253 125 138 135 125 133 133 141 148 148 150 144 159 174
334 333 332 332 331 330 328 328 328 327 324 322 318 311 304 300 296 295 294 289 289 289 292 295 288 289 288 270 276 285 290 283 278 280 287 287 282 284 288 286 286 284 281 266 260 264 260 237 196 207 257 202 214 304 333 336 322 223 185 214 193 187 264 284 238 189 202 231 157 162 230 260 258 258 247 131 148 135 129 142 143 149 154 154 158 156 166 177
331 330 329 329 328 329 329 328 326 324 324 322 318 310 302 299 296 295 295 290 289 285 284 293 273 241 243 278 294 308 287 266 280 295 308 292 271 264 273 292 300 293 292 271 259 260 245 212 170 186 213 208 177 168 312 313 302 282 184 206 189 176 225 278 267 206 193 209 179 181 208 266 250 248 236 129 149 138 137 149 151 159 162 159 162 161 166 168
330 328 327 325 325 326 328 328 323 323 325 322 320 313 301 299 297 294 294 291 289 279 259 258 267 244 244 271 299 316 292 280 301 311 312 299 278 264 263 278 297 293 303 292 267 254 226 187 176 177 179 204 157 140 198 232 237 273 160 187 209 171 182 224 277 247 188 191 209 199 198 216 252 268 37 139 149 141 145 153 157 165 166 163 161 162 169 170
329 327 326 324 323 324 326 327 323 326 330 322 320 317 308 305 301 295 291 283 286 284 253 244 254 282 251 258 285 316 320 323 319 309 304 303 277 252 238 211 262 297 310 304 260 203 176 180 174 155 173 192 182 166 195 211 185 180 162 169 217 200 192 203 235 242 170 179 201 182 197 227 259 304 13 144 152 147 156 160 164 170 168 164 162 166 173 177
329 327 327 325 324 324 325 326 325 329 331 321 321 324 322 326 319 308 290 206 134 110 257 214 196 206 284 272 268 314 315 315 313 303 302 317 261 229 217 209 257 315 260 253 211 187 161 144 162 182 199 192 193 186 193 194 142 164 180 158 178 202 225 214 228 247 155 145 191 174 190 222 239 267 299 150 156 152 160 164 166 171 167 163 165 171 174 185
331 329 328 327 326 325 324 325 325 328 331 321 323 332 343 9 2 348 90 179 209 232 257 214 201 232 287 288 288 318 317 314 309 288 291 306 260 199 191 188 153 174 217 187 196 193 152 180 205 201 202 189 187 175 178 222 161 154 164 176 188 189 249 246 252 271 172 142 219 190 192 219 216 225 193 150 151 151 161 165 167 172 172 173 174 175 177 189
331 331 330 328 327 325 324 325 324 328 330 320 325 343 2 348 331 327 326 253 228 230 249 243 227 235 257 267 277 314 323 315 303 286 284 284 250 181 180 166 158 193 207 185 224 220 161 202 214 198 189 175 173 159 163 214 224 174 157 197 219 194 239 252 239 272 218 155 252 186 186 239 226 201 180 157 154 162 167 167 172 178 179 180 175 176 181 187
331 331 329 328 326 324 324 324 324 326 326 324 337 35 225 278 283 299 305 280 245 220 236 244 237 242 250 258 265 276 286 285 296 295 283 262 202 190 178 160 177 186 166 189 260 203 198 212 192 175 174 149 153 159 165 201 220 218 192 183 229 219 243 274 264 286 96 165 254 188 185 260 263 169 172 181 178 185 182 177 178 177 178 181 178 179 183 181
331 330 328 328 326 325 325 324 325 323 321 330 323 248 282 298 291 296 279 285 283 221 221 237 233 235 246 256 256 235 230 235 271 282 266 213 185 190 182 174 182 166 162 194 205 186 204 206 163 166 165 141 152 170 172 196 212 208 195 177 233 242 189 246 273 294 227 171 184 155 191 286 328 80 166 232 242 192 198 191 181 178 180 182 182 185 184 178
331 330 327 327 325 326 325 323 324 320 322 325 306 276 319 304 288 296 252 267 290 243 222 228 225 226 238 250 234 190 212 209 216 261 253 201 183 186 191 183 169 178 195 198 203 211 237 205 155 162 173 160 159 175 178 188 208 208 193 181 211 239 206 209 269 307 337 354 105 114 350 306 270 139 202 247 195 137 174 182 172 183 183 174 180 190 190 185
331 330 326 325 325 325 325 325 326 327 326 321 295 315 339 317 294 288 217 280 285 261 229 221 219 229 235 236 193 174 210 218 215 244 246 192 197 190 192 185 172 199 197 179 193 221 253 236 159 163 187 180 169 185 185 175 189 225 211 189 193 209 221 237 317 8 31 351 291 141 214 287 264 201 207 203 151 163 167 175 180 182 175 173 185 192 192 192
332 329 326 324 322 324 327 327 321 326 326 313 287 338 340 341 347 162 169 303 277 264 239 213 192 215 227 197 170 170 222 245 225 225 236 240 241 220 196 186 181 205 183 159 199 209 225 231 179 174 186 183 186 204 193 168 164 222 217 191 194 206 211 207 33 61 95 252 273 160 180 261 300 241 220 194 177 177 172 193 195 187 182 187 190 187 187 189
331 330 328 323 319 321 322 305 306 318 315 275 321 341 344 347 7 141 122 296 259 278 274 293 122 208 237 176 162 153 195 263 217 202 213 225 233 228 204 186 167 195 165 154 216 190 183 205 198 184 181 187 199 204 186 163 155 215 202 173 187 209 205 179 130 140 209 244 303 351 155 211 279 256 222 172 178 190 193 202 201 197 198 198 195 190 188 189
329 331 329 320 314 310 297 289 296 292 267 280 323 332 336 339 315 159 345 284 243 59 343 281 324 289 263 168 163 178 226 330 73 188 189 194 204 191 193 200 180 181 171 178 210 175 174 198 201 185 188 197 193 180 159 154 164 213 172 152 177 200 195 172 160 222 259 15 301 297 124 172 266 272 178 154 184 210 208 205 201 200 202 202 200 197 195 195
326 329 328 321 312 300 288 281 268 255 263 291 314 316 316 314 344 64 341 269 251 101 117 291 313 307 270 155 175 219 265 342 12 184 164 175 195 197 208 220 187 181 189 193 206 195 178 195 194 181 196 194 167 166 154 157 184 195 154 135 136 165 178 170 173 204 154 118 252 254 163 178 274 256 173 159 202 218 213 205 202 201 200 201 200 196 198 196
324 326 328 325 313 300 287 266 256 255 260 273 289 301 305 279 34 52 262 263 281 152 215 279 323 332 359 149 198 237 259 274 297 348 147 165 189 203 242 182 155 167 192 190 207 246 222 179 184 185 193 172 156 175 162 167 181 154 151 157 65 28 127 146 138 123 116 236 252 236 180 179 261 251 189 186 211 207 193 188 198 204 202 199 197 195 194 190
322 325 327 324 310 293 268 267 266 250 234 258 280 284 312 342 77 170 246 251 248 255 261 268 300 331 36 131 229 234 231 256 284 254 186 164 160 193 219 171 153 110 158 174 200 245 256 193 186 170 159 151 157 185 182 182 182 150 149 165 204 317 357 69 28 80 169 244 258 230 177 175 226 250 209 215 226 203 179 188 191 197 200 197 194 191 188 184
323 326 324 320 305 264 233 248 198 147 173 238 258 169 81 34 305 219 249 316 277 250 97 273 286 336 345 294 253 226 216 243 243 213 222 167 158 199 204 186 179 142 171 181 180 220 251 237 200 160 161 163 163 177 192 201 188 163 153 149 167 251 265 204 222 178 206 243 259 221 160 180 230 242 216 215 226 212 192 197 191 190 193 190 186 183 180 178
325 325 321 316 293 241 237 245 184 155 158 210 168 70 78 76 257 225 236 289 262 216 185 230 248 274 279 281 264 212 206 240 204 205 251 177 157 201 220 224 238 172 167 167 162 187 226 281 229 187 176 172 172 175 188 204 185 171 171 158 166 174 173 208 221 197 224 250 263 230 166 232 259 259 227 212 219 216 202 198 190 187 187 182 178 173 169 172
324 324 322 312 275 246 250 249 208 207 244 228 103 53 61 243 258 251 254 242 246 273 246 235 267 266 240 238 252 211 189 232 218 199 209 182 164 193 217 227 229 239 104 148 165 179 187 245 222 196 179 172 183 185 170 159 158 170 154 132 154 163 161 194 198 176 202 254 273 218 164 206 202 255 260 228 221 205 172 154 155 164 169 167 166 164 166 171
325 327 327 313 277 253 238 205 188 199 215 141 75 81 195 251 254 269 283 253 283 293 278 284 288 279 243 218 235 241 187 193 207 205 197 185 186 192 201 215 212 208 146 165 179 179 191 241 213 191 188 171 178 186 150 128 144 178 125 123 179 185 155 153 179 173 176 219 259 207 196 220 199 286 320 296 157 133 135 133 135 148 157 157 164 170 170 171
330 334 337 321 292 265 203 180 173 181 185 117 79 174 222 237 233 240 250 234 270 297 300 299 281 259 251 204 213 226 212 171 181 197 219 192 202 200 188 202 196 195 187 164 157 166 184 267 215 182 205 190 173 176 175 161 162 167 152 170 196 173 147 147 232 174 105 170 234 245 222 279 291 311 345 34 108 131 141 143 147 156 158 162 172 174 172 173
332 333 333 320 317 304 188 175 171 176 180 138 160 220 227 233 241 240 227 226 219 270 296 305 277 206 256 226 210 188 179 154 167 185 229 202 218 204 175 192 190 194 201 168 166 168 156 259 240 181 199 217 172 166 188 187 152 142 183 196 158 122 130 112 198 346 59 172 244 287 199 247 227 240 328 22 117 153 155 153 156 156 158 170 180 176 177 177
326 320 306 313 325 291 184 174 170 173 180 190 235 250 235 223 244 235 212 223 240 242 268 275 204 332 353 240 261 179 162 155 158 181 221 205 230 202 172 190 207 201 203 166 179 291 151 197 265 188 189 213 165 161 191 210 171 146 177 182 150 151 202 117 159 182 128 177 234 299 250 238 195 211 268 230 185 177 166 160 160 163 170 178 179 179 181 173
323 312 296 336 347 229 178 170 165 168 209 219 243 257 231 230 252 249 218 196 245 252 256 257 216 218 331 264 272 213 161 161 155 172 209 180 219 219 175 170 225 208 186 155 166 299 121 137 236 197 181 166 149 169 188 205 194 152 152 169 157 154 172 173 167 168 164 180 201 230 321 262 229 212 194 201 199 177 168 173 176 179 182 180 176 177 179 174
322 305 300 351 347 201 168 160 159 184 224 226 243 252 261 262 262 260 226 188 218 248 235 253 235 204 290 283 280 306 135 141 149 164 202 185 199 249 181 167 217 207 159 162 181 258 327 148 174 193 174 154 175 198 190 185 179 167 167 170 164 150 145 159 177 141 140 156 174 175 227 259 256 211 185 195 193 181 182 183 184 187 183 178 176 173 174 174
308 298 311 351 335 164 151 148 183 218 231 257 255 251 273 276 265 270 236 197 210 239 236 257 262 250 294 328 315 293 29 71 125 158 209 206 190 251 212 179 197 187 146 176 201 191 196 198 161 173 180 184 196 196 182 174 168 165 174 176 172 165 134 136 210 243 116 147 171 158 196 261 265 217 202 198 184 188 192 185 184 185 177 175 175 171 172 174
301 306 309 324 220 159 141 160 229 210 244 260 256 256 275 277 266 273 254 210 214 234 234 245 248 239 251 239 226 253 193 135 181 167 197 219 199 222 234 190 182 176 160 189 213 188 156 150 181 191 196 203 201 181 166 162 149 143 168 184 170 154 129 137 189 231 156 155 162 126 169 263 261 230 234 216 189 192 195 187 181 176 172 171 169 167 171 174
316 302 307 314 192 162 131 278 225 218 241 256 278 274 277 281 273 283 281 235 216 225 226 234 240 228 214 209 223 260 27 110 211 197 191 218 214 217 222 194 175 176 187 200 200 185 172 185 260 247 158 146 351 108 139 148 142 142 178 174 158 170 167 152 169 187 176 183 148 116 198 266 274 281 267 217 183 184 191 177 157 155 165 166 164 167 171 172
304 281 301 299 183 172 253 273 246 273 264 280 291 285 286 279 258 269 277 244 208 216 230 227 230 226 213 201 212 258 320 296 254 245 213 213 234 224 214 191 177 183 195 205 182 176 195 201 151 144 132 120 87 81 128 168 172 176 183 162 164 173 162 142 130 126 173 207 163 141 208 253 271 312 310 175 149 138 152 137 135 151 164 166 167 168 169 170
307 251 262 263 191 182 251 257 272 287 285 296 293 289 294 275 234 242 256 260 241 227 251 257 242 242 229 197 192 231 235 224 249 270 224 216 261 245 213 188 189 196 204 220 215 146 181 195 141 145 161 163 168 175 181 180 171 160 143 150 169 168 159 165 152 118 202 226 158 149 208 254 286 330 2 148 146 139 145 138 138 156 166 169 170 167 169 173
337 310 302 295 194 185 245 255 262 267 283 305 299 291 287 276 270 257 256 264 239 217 240 263 264 264 204 166 236 249 237 223 219 238 266 249 261 258 205 184 190 199 206 221 229 125 80 240 184 168 177 179 187 206 190 134 131 141 137 139 160 163 151 139 120 146 187 175 176 212 204 231 286 306 310 173 165 157 158 156 155 161 167 170 169 168 170 168
13 2 327 325 296 237 242 236 214 239 274 295 306 305 284 277 298 297 253 245 238 241 247 240 247 233 171 162 188 232 240 224 209 222 288 270 251 272 219 176 183 198 206 218 229 190 16 287 241 185 187 195 190 190 162 129 136 150 139 136 153 146 131 125 151 192 166 124 264 256 188 184 250 248 218 201 183 172 173 173 167 161 160 159 156 159 161 148
4 343 315 331 312 293 308 300 284 288 290 277 264 290 289 288 300 314 301 313 328 315 228 231 261 246 238 232 175 217 242 215 163 216 306 280 274 303 253 163 176 197 202 211 219 157 217 271 251 182 190 204 184 164 150 134 141 149 143 148 154 143 144 157 192 204 161 154 234 230 166 197 244 234 213 208 191 179 175 162 144 141 143 147 152 155 154 146
352 311 308 338 305 287 290 288 290 300 300 282 258 266 278 295 302 272 218 290 313 266 170 266 260 225 236 234 201 234 266 150 94 266 265 274 290 315 113 153 163 165 170 192 205 162 191 263 256 173 160 165 138 152 147 133 136 148 153 158 157 158 166 173 193 201 171 170 203 170 161 227 250 235 226 226 154 126 135 126 128 143 149 152 155 154 149 146
5 308 316 323 290 283 278 282 297 302 294 275 274 277 257 278 305 307 221 203 269 257 143 214 260 242 247 228 195 212 223 159 187 226 212 256 307 328 80 126 109 112 137 181 208 177 198 243 256 107 96 41 40 115 131 130 139 144 138 130 133 141 147 145 163 178 158 137 113 123 149 262 267 237 181 75 100 112 128 141 145 151 154 153 152 151 150 151
333 297 305 307 297 300 297 305 313 305 309 334 312 316 308 274 298 314 300 193 206 211 181 231 276 281 272 235 182 216 216 187 213 231 221 221 262 293 3 51 78 114 148 175 158 161 208 249 319 64 91 17 7 81 102 105 116 123 126 133 132 131 138 170 207 190 165 143 104 106 148 251 256 168 90 94 132 139 147 151 145 151 161 158 155 156 157 159
328 298 299 292 283 300 311 318 320 314 327 334 307 313 309 290 297 313 318 198 209 224 224 243 280 302 297 296 241 251 254 235 241 248 239 225 225 232 250 268 270 173 174 155 111 195 168 206 296 67 106 354 343 91 104 91 95 128 206 182 153 133 132 154 237 231 174 144 128 150 206 229 189 139 117 122 142 152 166 167 159 161 164 158 158 160 160 166